Year,Month,Day,Hour,Minute,Value (Times are PST for temperature in C)
2010,07,20,00,00,15.30
2010,07,20,00,01,15.30
2010,07,20,00,02,15.30
2010,07,20,00,03,15.30
2010,07,20,00,04,15.30
2010,07,20,00,05,15.30
2010,07,20,00,06,15.30
2010,07,20,00,07,15.30
2010,07,20,00,08,15.40
2010,07,20,00,09,15.40
2010,07,20,00,10,15.40
2010,07,20,00,11,15.50
2010,07,20,00,12,15.60
2010,07,20,00,13,15.60
2010,07,20,00,14,15.70
2010,07,20,00,15,15.70
2010,07,20,00,16,15.70
2010,07,20,00,17,15.80
2010,07,20,00,18,15.80
2010,07,20,00,19,15.90
2010,07,20,00,20,16.00
2010,07,20,00,21,16.00
2010,07,20,00,22,16.10
2010,07,20,00,23,16.10
2010,07,20,00,24,16.10
2010,07,20,00,25,16.10
2010,07,20,00,26,16.10
2010,07,20,00,27,16.10
2010,07,20,00,28,16.10
2010,07,20,00,29,16.10
2010,07,20,00,30,16.10
2010,07,20,00,31,16.10
2010,07,20,00,32,16.10
2010,07,20,00,33,16.10
2010,07,20,00,34,16.10
2010,07,20,00,35,16.00
2010,07,20,00,36,16.00
2010,07,20,00,37,16.00
2010,07,20,00,38,16.00
2010,07,20,00,39,16.00
2010,07,20,00,40,15.90
2010,07,20,00,41,15.90
2010,07,20,00,42,15.90
2010,07,20,00,43,15.90
2010,07,20,00,44,15.90
2010,07,20,00,45,15.80
2010,07,20,00,46,15.80
2010,07,20,00,47,15.80
2010,07,20,00,48,15.80
2010,07,20,00,49,15.80
2010,07,20,00,50,15.70
2010,07,20,00,51,15.70
2010,07,20,00,52,15.70
2010,07,20,00,53,15.70
2010,07,20,00,54,15.70
2010,07,20,00,55,15.60
2010,07,20,00,56,15.60
2010,07,20,00,57,15.60
2010,07,20,00,58,15.60
2010,07,20,00,59,15.50
2010,07,20,01,00,15.50
2010,07,20,01,01,15.50
2010,07,20,01,02,15.50
2010,07,20,01,03,15.40
2010,07,20,01,04,15.40
2010,07,20,01,05,15.40
2010,07,20,01,06,15.40
2010,07,20,01,07,15.40
2010,07,20,01,08,15.40
2010,07,20,01,09,15.30
2010,07,20,01,10,15.30
2010,07,20,01,11,15.30
2010,07,20,01,12,15.30
2010,07,20,01,13,15.30
2010,07,20,01,14,15.30
2010,07,20,01,15,15.30
2010,07,20,01,16,15.30
2010,07,20,01,17,15.30
2010,07,20,01,18,15.20
2010,07,20,01,19,15.20
2010,07,20,01,20,15.20
2010,07,20,01,21,15.20
2010,07,20,01,22,15.20
2010,07,20,01,23,15.20
2010,07,20,01,24,15.20
2010,07,20,01,25,15.20
2010,07,20,01,26,15.20
2010,07,20,01,27,15.20
2010,07,20,01,28,15.20
2010,07,20,01,29,15.20
2010,07,20,01,30,15.20
2010,07,20,01,31,15.20
2010,07,20,01,32,15.20
2010,07,20,01,33,15.20
2010,07,20,01,34,15.10
2010,07,20,01,35,15.10
2010,07,20,01,36,15.10
2010,07,20,01,37,15.10
2010,07,20,01,38,15.10
2010,07,20,01,39,15.10
2010,07,20,01,40,15.10
2010,07,20,01,41,15.10
2010,07,20,01,42,15.10
2010,07,20,01,43,15.20
2010,07,20,01,44,15.20
2010,07,20,01,45,15.20
2010,07,20,01,46,15.20
2010,07,20,01,47,15.20
2010,07,20,01,48,15.30
2010,07,20,01,49,15.30
2010,07,20,01,50,15.30
2010,07,20,01,51,15.40
2010,07,20,01,52,15.40
2010,07,20,01,53,15.50
2010,07,20,01,54,15.50
2010,07,20,01,55,15.60
2010,07,20,01,56,15.60
2010,07,20,01,57,15.60
2010,07,20,01,58,15.60
2010,07,20,01,59,15.70
2010,07,20,02,00,15.70
2010,07,20,02,01,15.70
2010,07,20,02,02,15.70
2010,07,20,02,03,15.70
2010,07,20,02,04,15.70
2010,07,20,02,05,15.70
2010,07,20,02,06,15.70
2010,07,20,02,07,15.70
2010,07,20,02,08,15.80
2010,07,20,02,09,15.80
2010,07,20,02,10,15.80
2010,07,20,02,11,15.80
2010,07,20,02,12,15.80
2010,07,20,02,13,15.80
2010,07,20,02,14,15.80
2010,07,20,02,15,15.80
2010,07,20,02,16,15.80
2010,07,20,02,17,15.80
2010,07,20,02,18,15.80
2010,07,20,02,19,15.80
2010,07,20,02,20,15.80
2010,07,20,02,21,15.80
2010,07,20,02,22,15.90
2010,07,20,02,23,15.90
2010,07,20,02,24,15.90
2010,07,20,02,25,15.90
2010,07,20,02,26,15.90
2010,07,20,02,27,15.80
2010,07,20,02,28,15.80
2010,07,20,02,29,15.80
2010,07,20,02,30,15.80
2010,07,20,02,31,15.80
2010,07,20,02,32,15.80
2010,07,20,02,33,15.80
2010,07,20,02,34,15.80
2010,07,20,02,35,15.80
2010,07,20,02,36,15.80
2010,07,20,02,37,15.80
2010,07,20,02,38,15.80
2010,07,20,02,39,15.80
2010,07,20,02,40,15.80
2010,07,20,02,41,15.80
2010,07,20,02,42,15.80
2010,07,20,02,43,15.80
2010,07,20,02,44,15.80
2010,07,20,02,45,15.80
2010,07,20,02,46,15.80
2010,07,20,02,47,15.80
2010,07,20,02,48,15.80
2010,07,20,02,49,15.80
2010,07,20,02,50,15.80
2010,07,20,02,51,15.80
2010,07,20,02,52,15.80
2010,07,20,02,53,15.80
2010,07,20,02,54,15.80
2010,07,20,02,55,15.80
2010,07,20,02,56,15.80
2010,07,20,02,57,15.70
2010,07,20,02,58,15.70
2010,07,20,02,59,15.70
2010,07,20,03,00,15.70
2010,07,20,03,01,15.70
2010,07,20,03,06,15.70
2010,07,20,03,07,15.70
2010,07,20,03,08,15.70
2010,07,20,03,09,15.70
2010,07,20,03,10,15.70
2010,07,20,03,11,15.70
2010,07,20,03,12,15.60
2010,07,20,03,13,15.60
2010,07,20,03,14,15.60
2010,07,20,03,15,15.60
2010,07,20,03,16,15.60
2010,07,20,03,17,15.60
2010,07,20,03,18,15.60
2010,07,20,03,19,15.60
2010,07,20,03,20,15.60
2010,07,20,03,21,15.60
2010,07,20,03,22,15.60
2010,07,20,03,23,15.60
2010,07,20,03,24,15.60
2010,07,20,03,25,15.60
2010,07,20,03,26,15.50
2010,07,20,03,27,15.50
2010,07,20,03,28,15.50
2010,07,20,03,29,15.50
2010,07,20,03,30,15.50
2010,07,20,03,31,15.50
2010,07,20,03,32,15.50
2010,07,20,03,33,15.40
2010,07,20,03,34,15.40
2010,07,20,03,35,15.40
2010,07,20,03,36,15.40
2010,07,20,03,37,15.40
2010,07,20,03,38,15.40
2010,07,20,03,39,15.40
2010,07,20,03,40,15.40
2010,07,20,03,41,15.40
2010,07,20,03,42,15.40
2010,07,20,03,43,15.40
2010,07,20,03,44,15.40
2010,07,20,03,45,15.40
2010,07,20,03,46,15.40
2010,07,20,03,47,15.40
2010,07,20,03,48,15.40
2010,07,20,03,49,15.30
2010,07,20,03,50,15.30
2010,07,20,03,51,15.30
2010,07,20,03,52,15.30
2010,07,20,03,53,15.30
2010,07,20,03,54,15.30
2010,07,20,03,55,15.30
2010,07,20,03,56,15.30
2010,07,20,03,57,15.30
2010,07,20,03,58,15.30
2010,07,20,03,59,15.30
2010,07,20,04,00,15.30
2010,07,20,04,01,15.30
2010,07,20,04,02,15.30
2010,07,20,04,03,15.30
2010,07,20,04,04,15.30
2010,07,20,04,05,15.30
2010,07,20,04,06,15.30
2010,07,20,04,07,15.20
2010,07,20,04,08,15.20
2010,07,20,04,09,15.20
2010,07,20,04,10,15.20
2010,07,20,04,11,15.20
2010,07,20,04,12,15.20
2010,07,20,04,13,15.20
2010,07,20,04,14,15.20
2010,07,20,04,15,15.20
2010,07,20,04,16,15.20
2010,07,20,04,17,15.20
2010,07,20,04,18,15.20
2010,07,20,04,19,15.20
2010,07,20,04,20,15.20
2010,07,20,04,21,15.10
2010,07,20,04,22,15.10
2010,07,20,04,23,15.10
2010,07,20,04,24,15.10
2010,07,20,04,25,15.10
2010,07,20,04,26,15.10
2010,07,20,04,27,15.10
2010,07,20,04,28,15.10
2010,07,20,04,29,15.10
2010,07,20,04,30,15.10
2010,07,20,04,31,15.10
2010,07,20,04,32,15.10
2010,07,20,04,33,15.10
2010,07,20,04,34,15.10
2010,07,20,04,35,15.10
2010,07,20,04,36,15.10
2010,07,20,04,37,15.00
2010,07,20,04,38,15.00
2010,07,20,04,39,15.00
2010,07,20,04,40,15.00
2010,07,20,04,41,15.00
2010,07,20,04,42,15.00
2010,07,20,04,43,15.00
2010,07,20,04,44,15.00
2010,07,20,04,45,14.90
2010,07,20,04,46,14.90
2010,07,20,04,47,14.90
2010,07,20,04,48,14.90
2010,07,20,04,49,14.90
2010,07,20,04,50,14.90
2010,07,20,04,51,14.90
2010,07,20,04,52,14.90
2010,07,20,04,53,14.90
2010,07,20,04,54,14.90
2010,07,20,04,55,14.90
2010,07,20,04,56,14.90
2010,07,20,04,57,14.90
2010,07,20,04,58,14.80
2010,07,20,04,59,14.80
2010,07,20,05,00,14.80
2010,07,20,05,01,14.80
2010,07,20,05,02,14.80
2010,07,20,05,03,14.80
2010,07,20,05,04,14.80
2010,07,20,05,05,14.80
2010,07,20,05,06,14.80
2010,07,20,05,07,14.80
2010,07,20,05,08,14.80
2010,07,20,05,09,14.80
2010,07,20,05,10,14.80
2010,07,20,05,11,14.80
2010,07,20,05,12,14.80
2010,07,20,05,13,14.80
2010,07,20,05,14,14.80
2010,07,20,05,15,14.80
2010,07,20,05,16,14.80
2010,07,20,05,17,14.80
2010,07,20,05,18,14.80
2010,07,20,05,19,14.80
2010,07,20,05,20,14.80
2010,07,20,05,21,14.80
2010,07,20,05,22,14.80
2010,07,20,05,23,14.80
2010,07,20,05,24,14.80
2010,07,20,05,25,14.80
2010,07,20,05,26,14.80
2010,07,20,05,27,14.80
2010,07,20,05,28,14.80
2010,07,20,05,29,14.80
2010,07,20,05,30,14.80
2010,07,20,05,31,14.70
2010,07,20,05,32,14.70
2010,07,20,05,33,14.70
2010,07,20,05,34,14.70
2010,07,20,05,35,14.70
2010,07,20,05,36,14.70
2010,07,20,05,37,14.70
2010,07,20,05,38,14.70
2010,07,20,05,39,14.70
2010,07,20,05,40,14.70
2010,07,20,05,41,14.70
2010,07,20,05,42,14.70
2010,07,20,05,43,14.70
2010,07,20,05,44,14.70
2010,07,20,05,45,14.70
2010,07,20,05,46,14.70
2010,07,20,05,47,14.70
2010,07,20,05,48,14.70
2010,07,20,05,49,14.80
2010,07,20,05,50,14.80
2010,07,20,05,51,14.80
2010,07,20,05,52,14.80
2010,07,20,05,53,14.80
2010,07,20,05,54,14.80
2010,07,20,05,55,14.80
2010,07,20,05,56,14.80
2010,07,20,05,57,14.80
2010,07,20,05,58,14.80
2010,07,20,05,59,14.80
2010,07,20,06,00,14.80
2010,07,20,06,01,14.80
2010,07,20,06,02,14.80
2010,07,20,06,03,14.80
2010,07,20,06,04,14.70
2010,07,20,06,05,14.70
2010,07,20,06,06,14.70
2010,07,20,06,07,14.70
2010,07,20,06,08,14.70
2010,07,20,06,09,14.70
2010,07,20,06,10,14.70
2010,07,20,06,11,14.70
2010,07,20,06,12,14.70
2010,07,20,06,13,14.70
2010,07,20,06,14,14.70
2010,07,20,06,15,14.70
2010,07,20,06,16,14.70
2010,07,20,06,17,14.70
2010,07,20,06,18,14.70
2010,07,20,06,19,14.70
2010,07,20,06,20,14.70
2010,07,20,06,21,14.70
2010,07,20,06,22,14.70
2010,07,20,06,23,14.70
2010,07,20,06,24,14.70
2010,07,20,06,25,14.70
2010,07,20,06,26,14.70
2010,07,20,06,27,14.70
2010,07,20,06,28,14.70
2010,07,20,06,29,14.70
2010,07,20,06,30,14.70
2010,07,20,06,31,14.70
2010,07,20,06,32,14.70
2010,07,20,06,33,14.70
2010,07,20,06,34,14.70
2010,07,20,06,35,14.70
2010,07,20,06,36,14.70
2010,07,20,06,37,14.80
2010,07,20,06,38,14.80
2010,07,20,06,39,14.80
2010,07,20,06,40,14.80
2010,07,20,06,41,14.80
2010,07,20,06,42,14.80
2010,07,20,06,43,14.80
2010,07,20,06,44,14.80
2010,07,20,06,45,14.80
2010,07,20,06,46,14.90
2010,07,20,06,47,14.90
2010,07,20,06,48,14.90
2010,07,20,06,49,14.90
2010,07,20,06,50,14.90
2010,07,20,06,51,14.90
2010,07,20,06,52,14.90
2010,07,20,06,53,14.90
2010,07,20,06,54,14.90
2010,07,20,06,55,14.90
2010,07,20,06,56,15.00
2010,07,20,06,57,15.00
2010,07,20,06,58,15.00
2010,07,20,06,59,15.00
2010,07,20,07,00,15.00
2010,07,20,07,01,15.00
2010,07,20,07,02,15.10
2010,07,20,07,03,15.10
2010,07,20,07,04,15.10
2010,07,20,07,05,15.10
2010,07,20,07,06,15.10
2010,07,20,07,07,15.10
2010,07,20,07,08,15.10
2010,07,20,07,09,15.10
2010,07,20,07,10,15.10
2010,07,20,07,11,15.10
2010,07,20,07,12,15.10
2010,07,20,07,13,15.20
2010,07,20,07,14,15.20
2010,07,20,07,15,15.20
2010,07,20,07,16,15.20
2010,07,20,07,17,15.20
2010,07,20,07,18,15.20
2010,07,20,07,19,15.20
2010,07,20,07,20,15.30
2010,07,20,07,21,15.30
2010,07,20,07,22,15.30
2010,07,20,07,23,15.30
2010,07,20,07,24,15.30
2010,07,20,07,25,15.30
2010,07,20,07,26,15.30
2010,07,20,07,27,15.30
2010,07,20,07,28,15.30
2010,07,20,07,29,15.20
2010,07,20,07,30,15.20
2010,07,20,07,31,15.20
2010,07,20,07,32,15.20
2010,07,20,07,33,15.20
2010,07,20,07,34,15.20
2010,07,20,07,35,15.20
2010,07,20,07,36,15.20
2010,07,20,07,37,15.20
2010,07,20,07,38,15.20
2010,07,20,07,39,15.20
2010,07,20,07,40,15.20
2010,07,20,07,41,15.20
2010,07,20,07,42,15.20
2010,07,20,07,43,15.20
2010,07,20,07,44,15.20
2010,07,20,07,45,15.20
2010,07,20,07,46,15.20
2010,07,20,07,47,15.20
2010,07,20,07,48,15.20
2010,07,20,07,49,15.20
2010,07,20,07,50,15.20
2010,07,20,07,51,15.30
2010,07,20,07,52,15.30
2010,07,20,07,53,15.30
2010,07,20,07,54,15.30
2010,07,20,07,55,15.30
2010,07,20,07,56,15.30
2010,07,20,07,57,15.30
2010,07,20,07,58,15.30
2010,07,20,07,59,15.30
2010,07,20,08,00,15.30
2010,07,20,08,01,15.30
2010,07,20,08,02,15.30
2010,07,20,08,03,15.30
2010,07,20,08,04,15.30
2010,07,20,08,05,15.30
2010,07,20,08,06,15.40
2010,07,20,08,07,15.40
2010,07,20,08,08,15.40
2010,07,20,08,09,15.40
2010,07,20,08,10,15.40
2010,07,20,08,11,15.30
2010,07,20,08,12,15.30
2010,07,20,08,13,15.30
2010,07,20,08,14,15.30
2010,07,20,08,15,15.30
2010,07,20,08,16,15.30
2010,07,20,08,17,15.30
2010,07,20,08,18,15.30
2010,07,20,08,19,15.30
2010,07,20,08,20,15.30
2010,07,20,08,21,15.30
2010,07,20,08,22,15.30
2010,07,20,08,23,15.30
2010,07,20,08,24,15.30
2010,07,20,08,25,15.40
2010,07,20,08,26,15.40
2010,07,20,08,27,15.40
2010,07,20,08,28,15.40
2010,07,20,08,29,15.50
2010,07,20,08,30,15.50
2010,07,20,08,31,15.50
2010,07,20,08,32,15.50
2010,07,20,08,33,15.50
2010,07,20,08,34,15.50
2010,07,20,08,35,15.60
2010,07,20,08,36,15.60
2010,07,20,08,37,15.70
2010,07,20,08,38,15.70
2010,07,20,08,39,15.80
2010,07,20,08,40,15.80
2010,07,20,08,41,15.80
2010,07,20,08,42,15.80
2010,07,20,08,43,15.80
2010,07,20,08,44,15.90
2010,07,20,08,45,15.90
2010,07,20,08,46,15.90
2010,07,20,08,47,16.00
2010,07,20,08,48,16.00
2010,07,20,08,49,16.00
2010,07,20,08,50,16.00
2010,07,20,08,51,16.00
2010,07,20,08,52,16.10
2010,07,20,08,53,16.10
2010,07,20,08,54,16.10
2010,07,20,08,55,16.10
2010,07,20,08,56,16.00
2010,07,20,08,57,16.00
2010,07,20,08,58,16.00
2010,07,20,08,59,16.00
2010,07,20,09,00,16.00
2010,07,20,09,01,15.90
2010,07,20,09,02,15.90
2010,07,20,09,03,15.90
2010,07,20,09,04,15.90
2010,07,20,09,05,15.90
2010,07,20,09,06,15.90
2010,07,20,09,07,15.80
2010,07,20,09,08,15.80
2010,07,20,09,09,15.80
2010,07,20,09,10,15.80
2010,07,20,09,11,15.80
2010,07,20,09,12,15.70
2010,07,20,09,13,15.70
2010,07,20,09,14,15.70
2010,07,20,09,15,15.70
2010,07,20,09,16,15.70
2010,07,20,09,17,15.70
2010,07,20,09,18,15.70
2010,07,20,09,19,15.70
2010,07,20,09,20,15.60
2010,07,20,09,21,15.70
2010,07,20,09,22,15.70
2010,07,20,09,23,15.70
2010,07,20,09,24,15.70
2010,07,20,09,25,15.80
2010,07,20,09,26,15.80
2010,07,20,09,27,15.80
2010,07,20,09,28,15.80
2010,07,20,09,29,15.80
2010,07,20,09,30,15.80
2010,07,20,09,31,15.70
2010,07,20,09,32,15.80
2010,07,20,09,33,15.80
2010,07,20,09,34,15.70
2010,07,20,09,35,15.70
2010,07,20,09,36,15.70
2010,07,20,09,37,15.70
2010,07,20,09,38,15.60
2010,07,20,09,39,15.60
2010,07,20,09,40,15.60
2010,07,20,09,41,15.50
2010,07,20,09,42,15.50
2010,07,20,09,43,15.50
2010,07,20,09,44,15.50
2010,07,20,09,45,15.60
2010,07,20,09,46,15.60
2010,07,20,09,47,15.60
2010,07,20,09,48,15.60
2010,07,20,09,49,15.70
2010,07,20,09,50,15.70
2010,07,20,09,51,15.70
2010,07,20,09,52,15.70
2010,07,20,09,53,15.70
2010,07,20,09,54,15.70
2010,07,20,09,55,15.70
2010,07,20,09,56,15.70
2010,07,20,09,57,15.70
2010,07,20,09,58,15.70
2010,07,20,09,59,15.70
2010,07,20,10,00,15.70
2010,07,20,10,01,15.70
2010,07,20,10,02,15.70
2010,07,20,10,03,15.70
2010,07,20,10,04,15.70
2010,07,20,10,05,15.60
2010,07,20,10,06,15.60
2010,07,20,10,07,15.60
2010,07,20,10,08,15.70
2010,07,20,10,09,15.70
2010,07,20,10,10,15.70
2010,07,20,10,11,15.80
2010,07,20,10,12,15.90
2010,07,20,10,13,15.90
2010,07,20,10,14,16.00
2010,07,20,10,15,16.00
2010,07,20,10,16,16.10
2010,07,20,10,17,16.10
2010,07,20,10,18,16.10
2010,07,20,10,19,16.10
2010,07,20,10,20,16.10
2010,07,20,10,21,16.10
2010,07,20,10,22,16.10
2010,07,20,10,23,16.00
2010,07,20,10,24,16.00
2010,07,20,10,25,16.00
2010,07,20,10,26,16.00
2010,07,20,10,27,16.00
2010,07,20,10,28,16.00
2010,07,20,10,29,15.90
2010,07,20,10,30,15.90
2010,07,20,10,31,15.90
2010,07,20,10,32,16.00
2010,07,20,10,33,16.00
2010,07,20,10,34,16.00
2010,07,20,10,35,16.10
2010,07,20,10,36,16.00
2010,07,20,10,37,16.00
2010,07,20,10,38,16.00
2010,07,20,10,39,16.00
2010,07,20,10,40,16.00
2010,07,20,10,41,16.10
2010,07,20,10,42,16.10
2010,07,20,10,43,16.20
2010,07,20,10,44,16.30
2010,07,20,10,45,16.30
2010,07,20,10,46,16.30
2010,07,20,10,47,16.20
2010,07,20,10,48,16.20
2010,07,20,10,49,16.10
2010,07,20,10,50,16.10
2010,07,20,10,51,16.10
2010,07,20,10,52,16.10
2010,07,20,10,53,16.20
2010,07,20,10,54,16.10
2010,07,20,10,55,16.20
2010,07,20,10,56,16.20
2010,07,20,10,57,16.20
2010,07,20,10,58,16.30
2010,07,20,10,59,16.30
2010,07,20,11,00,16.30
2010,07,20,11,01,16.30
2010,07,20,11,02,16.30
2010,07,20,11,03,16.30
2010,07,20,11,04,16.30
2010,07,20,11,05,16.30
2010,07,20,11,06,16.30
2010,07,20,11,07,16.30
2010,07,20,11,08,16.40
2010,07,20,11,09,16.40
2010,07,20,11,10,16.40
2010,07,20,11,11,16.40
2010,07,20,11,12,16.40
2010,07,20,11,13,16.40
2010,07,20,11,14,16.40
2010,07,20,11,15,16.40
2010,07,20,11,16,16.40
2010,07,20,11,17,16.40
2010,07,20,11,18,16.30
2010,07,20,11,19,16.30
2010,07,20,11,20,16.30
2010,07,20,11,21,16.30
2010,07,20,11,22,16.30
2010,07,20,11,23,16.30
2010,07,20,11,24,16.30
2010,07,20,11,25,16.40
2010,07,20,11,26,16.40
2010,07,20,11,27,16.40
2010,07,20,11,28,16.50
2010,07,20,11,29,16.60
2010,07,20,11,30,16.60
2010,07,20,11,31,16.60
2010,07,20,11,32,16.70
2010,07,20,11,33,16.80
2010,07,20,11,34,16.80
2010,07,20,11,35,16.90
2010,07,20,11,36,17.00
2010,07,20,11,37,17.00
2010,07,20,11,38,17.10
2010,07,20,11,39,17.10
2010,07,20,11,40,17.20
2010,07,20,11,41,17.20
2010,07,20,11,42,17.10
2010,07,20,11,43,17.20
2010,07,20,11,44,17.20
2010,07,20,11,45,17.30
2010,07,20,11,46,17.30
2010,07,20,11,47,17.30
2010,07,20,11,48,17.20
2010,07,20,11,49,17.20
2010,07,20,11,50,17.20
2010,07,20,11,51,17.20
2010,07,20,11,52,17.30
2010,07,20,11,53,17.30
2010,07,20,11,54,17.40
2010,07,20,11,55,17.50
2010,07,20,11,56,17.50
2010,07,20,11,57,17.50
2010,07,20,11,58,17.50
2010,07,20,11,59,17.50
2010,07,20,12,00,17.50
2010,07,20,12,01,17.50
2010,07,20,12,02,17.60
2010,07,20,12,03,17.60
2010,07,20,12,04,17.60
2010,07,20,12,05,17.60
2010,07,20,12,06,17.60
2010,07,20,12,07,17.60
2010,07,20,12,08,17.60
2010,07,20,12,09,17.60
2010,07,20,12,10,17.60
2010,07,20,12,11,17.70
2010,07,20,12,12,17.60
2010,07,20,12,13,17.60
2010,07,20,12,14,17.60
2010,07,20,12,15,17.50
2010,07,20,12,16,17.40
2010,07,20,12,17,17.50
2010,07,20,12,18,17.50
2010,07,20,12,19,17.40
2010,07,20,12,20,17.30
2010,07,20,12,21,17.30
2010,07,20,12,22,17.30
2010,07,20,12,23,17.30
2010,07,20,12,24,17.30
2010,07,20,12,25,17.30
2010,07,20,12,26,17.40
2010,07,20,12,27,17.50
2010,07,20,12,28,17.50
2010,07,20,12,29,17.60
2010,07,20,12,30,17.80
2010,07,20,12,31,17.90
2010,07,20,12,32,17.90
2010,07,20,12,33,18.00
2010,07,20,12,34,18.10
2010,07,20,12,35,18.20
2010,07,20,12,36,18.20
2010,07,20,12,37,18.20
2010,07,20,12,38,18.30
2010,07,20,12,39,18.30
2010,07,20,12,40,18.40
2010,07,20,12,41,18.50
2010,07,20,12,42,18.50
2010,07,20,12,43,18.60
2010,07,20,12,44,18.50
2010,07,20,12,45,18.60
2010,07,20,12,46,18.70
2010,07,20,12,47,18.80
2010,07,20,12,48,18.90
2010,07,20,12,49,19.00
2010,07,20,12,50,19.10
2010,07,20,12,51,19.10
2010,07,20,12,52,19.20
2010,07,20,12,53,19.20
2010,07,20,12,54,19.20
2010,07,20,12,55,19.20
2010,07,20,12,56,19.20
2010,07,20,12,57,19.20
2010,07,20,12,58,19.30
2010,07,20,12,59,19.30
2010,07,20,13,00,19.30
2010,07,20,13,01,19.30
2010,07,20,13,02,19.30
2010,07,20,13,03,19.20
2010,07,20,13,04,19.20
2010,07,20,13,05,19.20
2010,07,20,13,06,19.20
2010,07,20,13,07,19.20
2010,07,20,13,08,19.20
2010,07,20,13,09,19.20
2010,07,20,13,10,19.20
2010,07,20,13,11,19.20
2010,07,20,13,12,19.20
2010,07,20,13,13,19.30
2010,07,20,13,14,19.30
2010,07,20,13,15,19.30
2010,07,20,13,16,19.30
2010,07,20,13,17,19.40
2010,07,20,13,18,19.30
2010,07,20,13,19,19.20
2010,07,20,13,20,19.10
2010,07,20,13,21,19.10
2010,07,20,13,22,19.10
2010,07,20,13,23,19.10
2010,07,20,13,24,19.30
2010,07,20,13,25,19.30
2010,07,20,13,26,19.40
2010,07,20,13,27,19.60
2010,07,20,13,28,19.70
2010,07,20,13,29,19.90
2010,07,20,13,30,19.90
2010,07,20,13,31,20.10
2010,07,20,13,32,20.20
2010,07,20,13,33,20.20
2010,07,20,13,34,20.30
2010,07,20,13,35,20.30
2010,07,20,13,36,20.40
2010,07,20,13,37,20.50
2010,07,20,13,38,20.60
2010,07,20,13,39,20.70
2010,07,20,13,40,20.60
2010,07,20,13,41,20.60
2010,07,20,13,42,20.50
2010,07,20,13,43,20.50
2010,07,20,13,44,20.50
2010,07,20,13,45,20.50
2010,07,20,13,46,20.40
2010,07,20,13,47,20.30
2010,07,20,13,48,20.30
2010,07,20,13,49,20.30
2010,07,20,13,50,20.40
2010,07,20,13,51,20.30
2010,07,20,13,52,20.30
2010,07,20,13,53,20.20
2010,07,20,13,54,20.20
2010,07,20,13,55,20.20
2010,07,20,13,56,20.20
2010,07,20,13,57,20.30
2010,07,20,13,58,20.40
2010,07,20,13,59,20.50
2010,07,20,14,00,20.60
2010,07,20,14,01,20.70
2010,07,20,14,02,20.70
2010,07,20,14,03,20.70
2010,07,20,14,04,20.70
2010,07,20,14,05,20.60
2010,07,20,14,06,20.70
2010,07,20,14,07,20.80
2010,07,20,14,08,20.80
2010,07,20,14,09,20.80
2010,07,20,14,10,20.80
2010,07,20,14,11,20.80
2010,07,20,14,12,20.80
2010,07,20,14,13,20.80
2010,07,20,14,14,20.80
2010,07,20,14,15,20.80
2010,07,20,14,16,20.90
2010,07,20,14,17,20.90
2010,07,20,14,18,21.10
2010,07,20,14,19,21.10
2010,07,20,14,20,21.20
2010,07,20,14,21,21.30
2010,07,20,14,22,21.40
2010,07,20,14,23,21.60
2010,07,20,14,24,21.70
2010,07,20,14,25,21.80
2010,07,20,14,26,21.80
2010,07,20,14,27,21.80
2010,07,20,14,28,22.00
2010,07,20,14,29,22.00
2010,07,20,14,30,22.00
2010,07,20,14,31,21.90
2010,07,20,14,32,21.80
2010,07,20,14,33,21.60
2010,07,20,14,34,21.60
2010,07,20,14,35,21.50
2010,07,20,14,36,21.50
2010,07,20,14,37,21.50
2010,07,20,14,38,21.60
2010,07,20,14,39,21.70
2010,07,20,14,40,21.70
2010,07,20,14,41,21.70
2010,07,20,14,42,21.80
2010,07,20,14,43,21.80
2010,07,20,14,44,21.80
2010,07,20,14,45,21.80
2010,07,20,14,46,21.80
2010,07,20,14,47,21.70
2010,07,20,14,48,21.60
2010,07,20,14,49,21.60
2010,07,20,14,50,21.50
2010,07,20,14,51,21.50
2010,07,20,14,52,21.40
2010,07,20,14,53,21.50
2010,07,20,14,54,21.50
2010,07,20,14,55,21.60
2010,07,20,14,56,21.70
2010,07,20,14,57,21.80
2010,07,20,14,58,21.80
2010,07,20,14,59,21.70
2010,07,20,15,00,21.60
2010,07,20,15,01,21.60
2010,07,20,15,02,21.70
2010,07,20,15,03,21.80
2010,07,20,15,04,21.90
2010,07,20,15,05,22.00
2010,07,20,15,06,22.10
2010,07,20,15,07,22.30
2010,07,20,15,08,22.40
2010,07,20,15,09,22.40
2010,07,20,15,10,22.40
2010,07,20,15,11,22.30
2010,07,20,15,12,22.30
2010,07,20,15,13,22.20
2010,07,20,15,14,22.10
2010,07,20,15,15,22.00
2010,07,20,15,16,21.90
2010,07,20,15,17,21.90
2010,07,20,15,18,22.00
2010,07,20,15,19,22.10
2010,07,20,15,20,22.20
2010,07,20,15,21,22.40
2010,07,20,15,22,22.50
2010,07,20,15,23,22.60
2010,07,20,15,24,22.60
2010,07,20,15,25,22.60
2010,07,20,15,26,22.60
2010,07,20,15,27,22.60
2010,07,20,15,28,22.60
2010,07,20,15,29,22.50
2010,07,20,15,30,22.50
2010,07,20,15,31,22.50
2010,07,20,15,32,22.50
2010,07,20,15,33,22.50
2010,07,20,15,34,22.50
2010,07,20,15,35,22.50
2010,07,20,15,36,22.40
2010,07,20,15,37,22.40
2010,07,20,15,38,22.40
2010,07,20,15,39,22.30
2010,07,20,15,40,22.30
2010,07,20,15,41,22.20
2010,07,20,15,42,22.10
2010,07,20,15,43,22.20
2010,07,20,15,44,22.20
2010,07,20,15,45,22.30
2010,07,20,15,46,22.50
2010,07,20,15,47,22.60
2010,07,20,15,48,22.70
2010,07,20,15,49,22.70
2010,07,20,15,50,22.70
2010,07,20,15,51,22.60
2010,07,20,15,52,22.60
2010,07,20,15,53,22.60
2010,07,20,15,54,22.60
2010,07,20,15,55,22.70
2010,07,20,15,56,22.70
2010,07,20,15,57,22.70
2010,07,20,15,58,22.80
2010,07,20,15,59,22.80
2010,07,20,16,00,22.90
2010,07,20,16,01,22.90
2010,07,20,16,02,22.80
2010,07,20,16,03,22.80
2010,07,20,16,04,22.70
2010,07,20,16,05,22.70
2010,07,20,16,06,22.80
2010,07,20,16,07,23.00
2010,07,20,16,08,23.20
2010,07,20,16,09,23.30
2010,07,20,16,10,23.40
2010,07,20,16,11,23.40
2010,07,20,16,12,23.40
2010,07,20,16,13,23.30
2010,07,20,16,14,23.20
2010,07,20,16,15,23.20
2010,07,20,16,16,23.10
2010,07,20,16,17,23.10
2010,07,20,16,18,23.10
2010,07,20,16,19,23.10
2010,07,20,16,20,23.20
2010,07,20,16,21,23.20
2010,07,20,16,22,23.30
2010,07,20,16,23,23.30
2010,07,20,16,24,23.40
2010,07,20,16,25,23.50
2010,07,20,16,26,23.60
2010,07,20,16,27,23.70
2010,07,20,16,28,23.80
2010,07,20,16,29,23.80
2010,07,20,16,30,23.80
2010,07,20,16,31,23.60
2010,07,20,16,32,23.50
2010,07,20,16,33,23.40
2010,07,20,16,34,23.30
2010,07,20,16,35,23.20
2010,07,20,16,36,23.10
2010,07,20,16,37,23.00
2010,07,20,16,38,23.00
2010,07,20,16,39,23.00
2010,07,20,16,40,23.00
2010,07,20,16,41,23.10
2010,07,20,16,42,23.10
2010,07,20,16,43,23.00
2010,07,20,16,44,23.00
2010,07,20,16,45,22.90
2010,07,20,16,46,23.00
2010,07,20,16,47,23.00
2010,07,20,16,48,23.20
2010,07,20,16,49,23.30
2010,07,20,16,50,23.40
2010,07,20,16,51,23.40
2010,07,20,16,52,23.40
2010,07,20,16,53,23.40
2010,07,20,16,54,23.50
2010,07,20,16,55,23.70
2010,07,20,16,56,23.80
2010,07,20,16,57,23.90
2010,07,20,16,58,24.00
2010,07,20,16,59,24.10
2010,07,20,17,00,24.20
2010,07,20,17,01,24.20
2010,07,20,17,02,24.20
2010,07,20,17,03,24.30
2010,07,20,17,04,24.20
2010,07,20,17,05,24.20
2010,07,20,17,06,24.20
2010,07,20,17,07,24.10
2010,07,20,17,08,24.00
2010,07,20,17,09,24.00
2010,07,20,17,10,23.90
2010,07,20,17,11,23.80
2010,07,20,17,12,23.70
2010,07,20,17,13,23.70
2010,07,20,17,14,23.70
2010,07,20,17,15,23.70
2010,07,20,17,16,23.70
2010,07,20,17,17,23.70
2010,07,20,17,18,23.70
2010,07,20,17,19,23.60
2010,07,20,17,20,23.60
2010,07,20,17,21,23.60
2010,07,20,17,22,23.60
2010,07,20,17,23,23.60